This is the latest recevied weather packets stored in our database for station/object WW5JC. If no packets are shown the sender has not sent any weather packets the latest 10 day(s).
| Time | Temp. | Humidity | Pressure | Rain* | Wind** | Luminosity | Snow |
|---|---|---|---|---|---|---|---|
| 1777735705 | 19.44° C | 51% | 1023.1 hPa | 0 mm | - | 504 W/m² | - |
| 1777735402 | 18.89° C | 48% | 1023.3 hPa | 0 mm | - | 493 W/m² | - |
| 1777735100 | 18.89° C | 52% | 1023.3 hPa | 0 mm | - | 477 W/m² | - |
| 1777734796 | 18.89° C | 53% | 1023.1 hPa | 0 mm | - | 465 W/m² | - |
| 1777734494 | 18.33° C | 58% | 1023.3 hPa | 0 mm | - | 451 W/m² | - |
| 1777734190 | 18.33° C | 58% | 1023.4 hPa | 0 mm | - | 437 W/m² | - |
| 1777733886 | 18.33° C | 59% | 1023.1 hPa | 0 mm | - | 423 W/m² | - |
| 1777733583 | 18.33° C | 60% | 1023.2 hPa | 0 mm | - | 408 W/m² | - |
| 1777733279 | 17.78° C | 65% | 1023.2 hPa | 0 mm | - | 394 W/m² | - |
| 1777732977 | 17.22° C | 62% | 1023.3 hPa | 0 mm | - | 382 W/m² | - |
| 1777732672 | 17.22° C | 65% | 1023 hPa | 0 mm | - | 367 W/m² | - |
| 1777732370 | 16.67° C | 68% | 1022.9 hPa | 0 mm | - | 351 W/m² | - |
| 1777732067 | 16.67° C | 68% | 1023 hPa | 0 mm | - | 339 W/m² | - |
| 1777731764 | 16.11° C | 68% | 1023 hPa | 0 mm | - | 322 W/m² | - |
| 1777731461 | 15.56° C | 71% | 1023.1 hPa | 0 mm | - | 307 W/m² | - |
| 1777731159 | 15° C | 70% | 1023.2 hPa | 0 mm | - | 294 W/m² | - |
| 1777730857 | 15° C | 72% | 1023.1 hPa | 0 mm | - | 278 W/m² | - |
| 1777730555 | 14.44° C | 73% | 1023.1 hPa | 0 mm | - | 263 W/m² | - |
| 1777730250 | 14.44° C | 74% | 1023.2 hPa | 0 mm | - | 250 W/m² | - |
| 1777729947 | 14.44° C | 74% | 1023 hPa | 0 mm | - | 238 W/m² | - |
| 1777729643 | 13.89° C | 75% | 1023.1 hPa | 0 mm | - | 225 W/m² | - |
| 1777729340 | 13.89° C | 75% | 1022.9 hPa | 0 mm | - | 210 W/m² | - |
| 1777729036 | 13.33° C | 77% | 1022.9 hPa | 0 mm | - | 197 W/m² | - |
| 1777728733 | 13.33° C | 76% | 1023 hPa | 0 mm | - | 182 W/m² | - |
| 1777728430 | 13.33° C | 74% | 1022.7 hPa | 0 mm | - | 168 W/m² | - |
* Rain latest hour (hover to see other rain measurements)
** Current wind speed in m/s (hover to see current wind gust speed)